Regional Weather Roundup
Issued by NWS

Home | Current Version | Previous Version | Graphics & Text | Print | Product List | Glossary On
Versions: 1 2 3 4 5 6 7 8 9 10 11 12 13 14 15 16 17 18 19 20 21 22 23 24 25 26 27 28 29 30 31 32 33 34 35 36 37 38 39 40 41 42 43 44 45 46 47 48 49 50
000
ASUS45 KTFX 210710
RWRMT
MONTANA REGIONAL WEATHER ROUNDUP
NATIONAL WEATHER SERVICE GREAT FALLS MT
100 AM MDT THU SEP 21 2017

NOTE: "FAIR" INDICATES FEW OR NO CLOUDS BELOW 12000 FEET WITH NO
SIGNIFICANT WEATHER AND/OR OBSTRUCTIONS TO VISIBILITY.

MTZ001>007-043-210800-
WEST OF THE DIVIDE

CITY           SKY/WX    TMP DP  RH WIND       PRES   REMARKS
KALISPELL      CLOUDY    44  38  79 S6        29.71S
MISSOULA       CLOUDY    42  38  85 CALM      29.75S
BUTTE          CLOUDY    34  33  96 NE3       29.77R
MULLAN PASS    SNOW      30  29  96 VRB6      29.70S VSB 1/2 WCI  24
ANACONDA         N/A     37  30  75 S6        29.76R
DEER LODGE       N/A     37  32  81 CALM      29.77S
EUREKA           N/A     43  36  75 CALM      29.70S
HAMILTON         N/A     39  36  87 S7        29.74F
LIBBY            N/A     37  36  93 CALM      29.70R
PLAINS           N/A     42  37  82 CALM      29.76F
$$

MTZ008-052>055-210800-
SOUTHWEST MONTANA

CITY           SKY/WX    TMP DP  RH WIND       PRES   REMARKS
BOZEMAN        CLOUDY    43  40  89 E3        29.75R
DILLON         CLOUDY    37  33  85 CALM      29.74R
W YELLOWSTONE  LGT RAIN  36  36 100 MISG      29.77S
ENNIS          CLOUDY    43  36  75 E6        29.78S
THREE FORKS      N/A     41  36  82 CALM      29.77S
TWIN BRIDGES     N/A     40  31  70 CALM      29.76S
$$

MTZ009-010-012-014-046-048-049-054-210800-
EAST SLOPES AND CENTRAL MONTANA

CITY           SKY/WX    TMP DP  RH WIND       PRES   REMARKS
CUT BANK       MOCLDY    39  32  76 W14       29.64S WCI  31
GREAT FALLS    CLOUDY    42  30  62 SW13      29.67F
MALMSTROM AFB  CLOUDY    41  32  70 SW10      29.68S
HELENA         CLOUDY    43  32  65 S5        29.72F
BOWMANS CRNR     N/A     39  27  61 SW10      29.67R
CHOTEAU          N/A     43  27  52 W5        29.68R
FAIRFIELD        N/A     38  28  66 S6        29.66R
POWER            N/A     37  30  76 SW12      29.66S WCI  29
RAYNESFORD     MOCLDY    42  29  60 E7        29.69R
ULM              N/A     43  30  61 SW8       29.69R
$$

MTZ011-013-016-021-045-047-050-051-210800-
NORTH CENTRAL MONTANA

CITY           SKY/WX    TMP DP  RH WIND       PRES   REMARKS
HAVRE          MOCLDY    46  31  55 SW16      29.63R
LEWISTOWN      CLOUDY    44  31  60 SW13      29.69R
N BAR RANCH      N/A     43  27  52 SW6       29.71R
CHINOOK          N/A     46  30  53 W8        29.62R
DENTON           N/A     44  31  60 SW12      29.65R
GEYSER         MOCLDY    43  30  60 SW13      29.66R
GRASS RANGE      N/A     45  31  58 W13       29.64R
JUDITH GAP     MOCLDY    39  32  74 SW8       29.70S
WINIFRED       MOCLDY    44  33  64 W6        29.67R
$$

MTZ017>020-022>027-061-062-210800-
NORTHEAST MONTANA

CITY           SKY/WX    TMP DP  RH WIND       PRES   REMARKS
GLASGOW        PTCLDY    52  37  56 SE3       29.60S
JORDAN           N/A     51  39  63 W9        29.62R
SIDNEY         CLOUDY    41  34  76 W5        29.63F
WOLF POINT     PTCLDY    48  39  71 CALM      29.61F
MALTA          CLEAR     48  36  61 W3        29.60S
POPLAR           N/A     45  37  76 N3        29.62F
SCOBEY           N/A     45  33  62 CALM      29.63R
$$

MTZ028>42-056>058-210800-
SOUTHCENTRAL AND SOUTHEAST MONTANA

CITY           SKY/WX    TMP DP  RH WIND       PRES   REMARKS
BAKER          CLOUDY    56  33  42 S15       29.67F
BILLINGS       CLOUDY    50  38  63 W7        29.69R
LIVINGSTON     LGT RAIN  43  40  89 SW6       29.73S
MILES CITY     CLOUDY    52  36  54 NW6       29.64F
BIG TIMBER     CLOUDY    45  41  87 W13       29.74R
EKALAKA          N/A     61  25  25 SE10      29.69F
HARLOWTON      MOCLDY    42  36  79 MISG      29.70S
LAUREL           N/A     48  39  71 W8        29.71S
$$

REGIONAL REPORTS...DAKOTAS

CITY           SKY/WX    TMP DP  RH WIND       PRES   REMARKS
WILLISTON      CLEAR     41  36  82 CALM      29.63F
MINOT          CLOUDY    58  37  45 SE8       29.66F
DICKINSON      CLOUDY    51  36  56 S10       29.68S
BEACH            N/A     52  34  50 VRB3      29.69S
CROSBY           N/A     45  37  76 S8        29.63F
TIOGA            N/A     43  39  87 CALM      29.66F
WATFORD CITY     N/A     46  34  61 CALM      29.64S
BISMARCK       PTCLDY    54  38  54 SE3       29.74S
GRAND FORKS    CLEAR     53  45  74 S9        29.82S
FARGO          CLEAR     57  44  62 SE15G22   29.86R
BUFFALO SD       N/A     65  33  30 S22G36    29.60
$$

REGIONAL REPORTS...WYOMING/IDAHO/WASHINGTON

CITY           SKY/WX    TMP DP  RH WIND       PRES   REMARKS
GILLETTE       CLOUDY    57  34  41 S12       29.68F
SHERIDAN       MOCLDY    62  30  29 W15       29.69R
BUFFALO WY     CLOUDY    54  29  38 SE5       29.70F
CODY           CLOUDY    52  36  54 SW10      29.73S
IDAHO FALLS    RAIN      46  43  89 S8        29.77F FOG
SALMON         CLOUDY    39  37  92 CALM      29.77R
BOISE          CLOUDY    49  44  83 SE6       29.73R
SPOKANE        CLOUDY    42  41  96 CALM      29.74F
$$

REGIONAL REPORTS...ALBERTA

CITY           SKY/WX    TMP DP  RH WIND       PRES   REMARKS
EDMONTON       LGT RAIN  39  39 100 NW12      29.59R WCI  32
CALGARY        MOCLDY    37  28  70 N21G28    29.64R WCI  27
LETHBRIDGE     MOCLDY    41  32  70 NW10      29.67R
MEDICINE HAT   MOCLDY    37  32  81 SW5       29.62R
$$

REGIONAL REPORTS...SASKATCHEWAN

CITY           SKY/WX    TMP DP  RH WIND       PRES   REMARKS
SWIFT CURRENT  CLEAR     37  23  56 W12       29.56R WCI  30
REGINA         PTCLDY    41  32  70 S12       29.57R
SASKATOON      CLEAR     36  32  87 SW9       29.51R WCI  29
$$



USA.gov is the U.S. government's official web portal to all federal, state and local government web resources and services.